Downstream station:
SHEF ID: FRGO2 Cimarron River near Forgan, OK
STATION TYPE:
Regulating: Stage = 5.00, Flow = 511
PRECIP STAGE RIV-FLOW BAT-LOAD
in ft cfs volt
Ccp-Rev Ccp-Rev Ccp-Rev Ccp-Rev
(US/Central)
12/23 00:00 0.00 1.77 14 12.57
12/23 01:00 0.00 1.79 14 12.57
12/23 02:00 0.00 1.76 13 12.57
12/23 03:00 0.00 1.78 14 12.49
12/23 04:00 0.00 1.78 14 12.41
12/23 05:00 0.00 1.79 14 ----
12/23 06:00 0.00 1.78 14 12.41
12/23 07:00 0.00 1.80 14 12.41
12/23 08:00 0.00 1.80 14 12.41
12/23 09:00 0.00 1.80 14 12.33
12/23 10:00 0.00 1.82 15 12.49
12/23 11:00 0.00 1.81 14 12.97
12/23 12:00 0.00 1.80 14 13.29
12/23 13:00 0.00 1.80 14 13.37
12/23 14:00 0.00 1.81 14 13.29
12/23 15:00 0.00 1.82 15 13.21
12/23 16:00 0.00 1.81 14 13.21
12/23 17:00 0.00 1.80 14 13.13
12/23 18:00 0.00 1.80 14 12.89
12/23 19:00 0.00 1.80 14 12.73
12/23 20:00 0.00 1.78 14 12.65
12/23 21:00 0.00 1.79 14 12.65
12/23 22:00 0.00 1.79 14 12.57
12/23 23:00 0.00 1.76 13 12.57